Flag for U.S.A. Weather past 2 weeks in Oxnard, California, U.S.A.

Now
66 °F

Clear.


Feels Like: 66 °F
Forecast: 62 / 75 °F
Wind: No wind

Location: Oxnard Airport

Current Time: Sep 1, 2014 at 1:31:11 AM

Latest Report: Sep 1, 2014 at 12:51 AM


Visibility: 7 mi

Pressure: 29.80 "Hg

Humidity: 84%

Dew point: 61 °F

Location of OxnardLocation

Historic Weather in Oxnard — Graph

°F

Oxnard temperature yesterday

Maximum temperature yesterday: 79 °F (at 2:51 PM)
Minimum temperature yesterday: 63 °F (at 6:51 AM)
Average temperature yesterday: 71 °F

Past Weeks' High & Low Weather Summary

 TemperatureHumidityPressure
High81 °F (Aug 27, 1:51 PM)100% (Aug 30, 7:51 AM)30.04 "Hg (Aug 30, 7:51 AM)
Low57 °F (Aug 26, 4:51 AM)36% (Aug 27, 9:51 AM)29.73 "Hg (Aug 30, 6:51 PM)
Average67 °F77%29.90 "Hg
* Reported Aug 17 12:51 AM — Sep 1 12:01 AM, Oxnard, Weather by CustomWeather, © 2014

Note: Actual official high and low records may vary slightly from our data, if they occured in-between our weather recording intervals... More about our weather records

Advertising

Oxnard weather history for previous 24 hours

 ConditionsComfort  
Time TempWeatherWind HumidityBarometerVisibility
12:01 AM
Sep 1
68 °FPassing clouds.No wind78%29.80 "Hg8 mi
10:51 PM
Aug 31
69 °FClear.No wind76%29.79 "Hg7 mi
9:51 PM68 °FClear.No wind78%29.78 "Hg7 mi
8:51 PM69 °FClear.No wind76%29.77 "Hg8 mi
7:51 PM70 °FSunny.3 mph73%29.75 "Hg8 mi
6:51 PM70 °FSunny.5 mph73%29.75 "Hg7 mi
5:51 PM72 °FPassing clouds.7 mph68%29.75 "Hg8 mi
4:51 PM74 °FPassing clouds.7 mph71%29.75 "Hg9 mi
3:51 PM77 °FSunny.9 mph71%29.76 "Hg9 mi
2:51 PM79 °FSunny.6 mph62%29.78 "Hg10 mi
1:51 PM77 °FSunny.8 mph64%29.81 "Hg10 mi
12:51 PM77 °FSunny.7 mph66%29.82 "Hg10 mi
11:51 AM77 °FSunny.6 mph66%29.83 "Hg7 mi
10:51 AM75 °FSunny.7 mph74%29.84 "Hg6 mi
9:51 AM73 °FScattered clouds.6 mph79%29.84 "Hg6 mi
8:51 AM72 °FPassing clouds.3 mph66%29.83 "Hg8 mi
7:51 AM67 °FSunny.3 mph79%29.82 "Hg7 mi
6:51 AM63 °FFog.No wind87%29.80 "Hg6 mi
5:51 AM64 °FClear.3 mph87%29.80 "Hg7 mi
4:51 AM64 °FClear.No wind87%29.78 "Hg7 mi
3:51 AM66 °FClear.No wind87%29.77 "Hg7 mi
2:51 AM65 °FFog.3 mph87%29.77 "Hg6 mi
1:51 AM67 °FClear.6 mph85%29.77 "Hg8 mi
Weather by CustomWeather, © 2014

See weather overviewHow to use our weather pages